Location: Boiro
(42.6475°N, 8.8834°W)
Time: 07:07:59
(UTC+01:00)

ITAMSAT 1 - Visible Passes

Search period start: 27 January 2022 00:00
Search period end: 06 February 2022 00:00
Orbit: 783 x 797 km, 98.9° (Epoch: 26 January)

Date Brightness Start Highest point End Pass type
(mag) Time Alt. Az. Time Alt. Az. Time Alt. Az.
27 Jan 8.1 20:30:17 10° S 20:35:24 62° WSW 20:40:33 10° NNW visible
28 Jan 7.5 20:00:44 10° SSE 20:05:53 72° ENE 20:11:04 10° N visible
28 Jan 10.6 21:43:10 10° WSW 21:45:51 14° W 21:48:32 10° WNW visible
29 Jan 10.4 08:13:24 10° NE 08:17:29 23° E 08:21:33 10° SE visible
29 Jan 8.1 19:31:44 10° SE 19:36:30 39° ENE 19:41:17 10° N visible
29 Jan 9.7 21:11:43 10° SSW 21:16:02 26° W 21:20:22 10° NW visible
30 Jan 11.0 07:45:40 10° ENE 07:47:39 12° E 07:49:36 10° ESE visible
30 Jan 8.6 20:41:21 10° S 20:46:21 49° W 20:51:23 10° NNW visible
31 Jan 7.6 20:11:37 10° SSE 20:16:48 89° ENE 20:22:00 10° NNW visible
31 Jan 10.8 21:55:35 10° WSW 21:56:54 11° W 21:58:14 10° WNW visible
01 Feb 7.8 19:42:25 10° SE 19:47:21 48° ENE 19:52:20 10° N visible
01 Feb 10.1 21:23:09 10° SW 21:27:02 21° W 21:30:57 10° NW visible
02 Feb 10.7 07:55:41 10° NE 07:58:41 15° E 08:01:42 10° SE visible
02 Feb 9.0 20:52:30 10° SSW 20:57:19 39° W 21:02:10 10° NNW visible
03 Feb 7.8 20:22:33 10° S 20:27:43 74° WSW 20:32:54 10° NNW visible
04 Feb 7.6 19:53:09 10° SSE 19:58:14 60° ENE 20:03:20 10° N visible
04 Feb 10.4 21:34:45 10° SW 21:38:04 17° W 21:41:24 10° NW visible
05 Feb 10.6 08:06:02 10° NE 08:09:44 19° E 08:13:24 10° SE visible
05 Feb 8.3 19:24:18 10° SE 19:28:53 33° ENE 19:33:29 10° N visible
05 Feb 9.4 21:03:43 10° SSW 21:08:17 32° W 21:12:54 10° NW visible
